Tracking 18624 objects as of 27-April-2017
HD Live streaming from Space Station
objects crossing your sky now

SL-16 DEB

Track SL-16 DEB now!
10-day predictions


NORAD ID: 22453
Int'l Code: 1992-093ES
Perigee: 825.7 km
Apogee: 1,079.5 km
Inclination: 70.8 °
Period: 104.0 minutes
Semi major axis: 7323 km
RCS: 0.0192 m2 (small)
Launch date: December 25, 1992
Source: Commonwealth of Independent States (former USSR) (CIS)
Launch site: TYURATAM MISSILE AND SPACE COMPLEX (TTMTR)

Note: This is SATELLITE DEBRIS
Your satellite tracking list
Your tracking list is empty





NASA's NSSDC Master Catalog

Two Line Element Set (TLE):
1 22453U 92093ES  17115.85964359 +.00000232 +00000-0 +21685-3 0  9995
2 22453 070.8058 051.9031 0173285 143.4620 280.7928 13.85217520224290
Source of the keplerian elements: AFSPC